Data supplied by UK-AIR on 15/3/2018
All Data GMT hour ending 
Status: R =Ratified P=Provisional,P*=As supplied
,,Doncaster A630 Cleveland Street,,,,,,,,,,,,,,,,,,,,,,,
Date,time,"Nitric oxide",status,unit,"Nitrogen dioxide",status,unit,"Nitrogen oxides as nitrogen dioxide",status,unit
 
01-01-2017,01:00,3.85249,R,ugm-3,15.82913,R,ugm-3,21.73620,R,ugm-3
01-01-2017,02:00,2.46654,R,ugm-3,15.16517,R,ugm-3,18.94714,R,ugm-3
01-01-2017,03:00,3.55886,R,ugm-3,15.37937,R,ugm-3,20.83621,R,ugm-3
01-01-2017,04:00,6.34252,R,ugm-3,21.58400,R,ugm-3,31.30906,R,ugm-3
01-01-2017,05:00,2.18465,R,ugm-3,11.98038,R,ugm-3,15.33012,R,ugm-3
01-01-2017,06:00,1.72658,R,ugm-3,11.49556,R,ugm-3,14.14294,R,ugm-3
01-01-2017,07:00,1.02185,R,ugm-3,8.41978,R,ugm-3,9.98660,R,ugm-3
01-01-2017,08:00,0.73996,R,ugm-3,5.72077,R,ugm-3,6.85536,R,ugm-3
01-01-2017,09:00,1.33898,R,ugm-3,15.27466,R,ugm-3,17.32773,R,ugm-3
01-01-2017,10:00,2.18465,R,ugm-3,15.59739,R,ugm-3,18.94714,R,ugm-3
01-01-2017,11:00,4.26358,R,ugm-3,19.53523,R,ugm-3,26.07263,R,ugm-3
01-01-2017,12:00,4.58071,R,ugm-3,19.15703,R,ugm-3,26.18069,R,ugm-3
01-01-2017,13:00,8.21004,R,ugm-3,26.16874,R,ugm-3,38.75729,R,ugm-3
01-01-2017,14:00,6.83583,R,ugm-3,18.93805,R,ugm-3,29.41951,R,ugm-3
01-01-2017,15:00,8.49193,R,ugm-3,22.01288,R,ugm-3,35.03365,R,ugm-3
01-01-2017,16:00,11.13465,R,ugm-3,25.35593,R,ugm-3,42.42881,R,ugm-3
01-01-2017,17:00,9.54902,R,ugm-3,26.65356,R,ugm-3,41.29518,R,ugm-3
01-01-2017,18:00,19.02756,R,ugm-3,39.75753,R,ugm-3,68.93272,R,ugm-3
01-01-2017,19:00,10.35945,R,ugm-3,32.53593,R,ugm-3,48.42020,R,ugm-3
01-01-2017,20:00,23.22067,R,ugm-3,40.02193,R,ugm-3,75.62647,R,ugm-3
01-01-2017,21:00,8.66811,R,ugm-3,29.35305,R,ugm-3,42.64397,R,ugm-3
01-01-2017,22:00,23.15020,R,ugm-3,37.97125,R,ugm-3,73.46773,R,ugm-3
01-01-2017,23:00,5.10925,R,ugm-3,19.85797,R,ugm-3,27.69204,R,ugm-3
01-01-2017,24:00,11.38130,R,ugm-3,24.76114,R,ugm-3,42.21222,R,ugm-3
02-01-2017,01:00,3.85624,R,ugm-3,15.41029,R,ugm-3,21.32310,R,ugm-3
02-01-2017,02:00,0.79994,R,ugm-3,6.04924,R,ugm-3,7.27579,R,ugm-3
02-01-2017,03:00,0.88215,R,ugm-3,7.83217,R,ugm-3,9.18478,R,ugm-3
02-01-2017,04:00,0.77644,R,ugm-3,6.04924,R,ugm-3,7.23977,R,ugm-3
02-01-2017,05:00,0.70535,R,ugm-3,6.21228,R,ugm-3,7.29380,R,ugm-3
02-01-2017,06:00,11.63856,R,ugm-3,25.37696,R,ugm-3,43.22250,R,ugm-3
02-01-2017,07:00,7.40647,R,ugm-3,23.43769,R,ugm-3,34.79411,R,ugm-3
02-01-2017,08:00,3.49119,R,ugm-3,17.50081,R,ugm-3,22.85390,R,ugm-3
02-01-2017,09:00,9.34571,R,ugm-3,33.32292,R,ugm-3,47.65281,R,ugm-3
02-01-2017,10:00,9.24031,R,ugm-3,26.13670,R,ugm-3,40.30498,R,ugm-3
02-01-2017,11:00,8.88732,R,ugm-3,21.49124,R,ugm-3,35.11828,R,ugm-3
02-01-2017,12:00,11.10908,R,ugm-3,22.78505,R,ugm-3,39.81873,R,ugm-3
02-01-2017,13:00,9.48696,R,ugm-3,17.87040,R,ugm-3,32.41688,R,ugm-3
02-01-2017,14:00,10.01582,R,ugm-3,20.08508,R,ugm-3,35.44245,R,ugm-3
02-01-2017,15:00,10.50944,R,ugm-3,23.97462,R,ugm-3,40.08887,R,ugm-3
02-01-2017,16:00,16.99883,R,ugm-3,39.47161,R,ugm-3,65.53612,R,ugm-3
02-01-2017,17:00,10.33326,R,ugm-3,33.53760,R,ugm-3,49.38171,R,ugm-3
02-01-2017,18:00,8.95811,R,ugm-3,29.59498,R,ugm-3,43.33056,R,ugm-3
02-01-2017,19:00,7.75852,R,ugm-3,39.10632,R,ugm-3,51.00255,R,ugm-3
02-01-2017,20:00,11.56777,R,ugm-3,29.86178,R,ugm-3,47.59878,R,ugm-3
02-01-2017,21:00,10.47451,R,ugm-3,34.94185,R,ugm-3,51.00255,R,ugm-3
02-01-2017,22:00,5.92499,R,ugm-3,27.05996,R,ugm-3,36.14482,R,ugm-3
02-01-2017,23:00,5.29011,R,ugm-3,19.17281,R,ugm-3,27.28420,R,ugm-3
02-01-2017,24:00,1.79861,R,ugm-3,13.45061,R,ugm-3,16.20844,R,ugm-3
03-01-2017,01:00,1.36538,R,ugm-3,9.58673,R,ugm-3,11.68027,R,ugm-3
03-01-2017,02:00,1.08266,R,ugm-3,8.07330,R,ugm-3,9.73335,R,ugm-3
03-01-2017,03:00,1.05896,R,ugm-3,15.46448,R,ugm-3,17.08819,R,ugm-3
03-01-2017,04:00,2.61247,R,ugm-3,21.35593,R,ugm-3,25.36166,R,ugm-3
03-01-2017,05:00,1.23545,R,ugm-3,8.81280,R,ugm-3,10.70713,R,ugm-3
03-01-2017,06:00,6.42453,R,ugm-3,12.21227,R,ugm-3,22.06308,R,ugm-3
03-01-2017,07:00,6.77721,R,ugm-3,14.21274,R,ugm-3,24.60431,R,ugm-3
03-01-2017,08:00,10.34230,R,ugm-3,19.61556,R,ugm-3,35.47353,R,ugm-3
03-01-2017,09:00,7.37747,R,ugm-3,16.86156,R,ugm-3,28.17352,R,ugm-3
03-01-2017,10:00,10.09533,R,ugm-3,17.02029,R,ugm-3,32.49959,R,ugm-3
03-01-2017,11:00,8.33041,R,ugm-3,18.75350,R,ugm-3,31.52661,R,ugm-3
03-01-2017,12:00,8.82434,R,ugm-3,15.29187,R,ugm-3,28.82233,R,ugm-3
03-01-2017,13:00,10.80131,R,ugm-3,17.77621,R,ugm-3,34.33798,R,ugm-3
03-01-2017,14:00,10.13088,R,ugm-3,17.18238,R,ugm-3,32.71618,R,ugm-3
03-01-2017,15:00,10.27183,R,ugm-3,14.47858,R,ugm-3,30.22850,R,ugm-3
03-01-2017,16:00,11.15460,R,ugm-3,20.53356,R,ugm-3,37.63704,R,ugm-3
03-01-2017,17:00,8.64816,R,ugm-3,16.31888,R,ugm-3,29.57920,R,ugm-3
03-01-2017,18:00,6.03631,R,ugm-3,15.99806,R,ugm-3,25.25361,R,ugm-3
03-01-2017,19:00,7.73045,R,ugm-3,15.29283,R,ugm-3,27.14603,R,ugm-3
03-01-2017,20:00,5.93029,R,ugm-3,12.53787,R,ugm-3,21.63085,R,ugm-3
03-01-2017,21:00,3.56541,R,ugm-3,9.40376,R,ugm-3,14.87064,R,ugm-3
03-01-2017,22:00,3.24735,R,ugm-3,9.18861,R,ugm-3,14.16780,R,ugm-3
03-01-2017,23:00,3.21211,R,ugm-3,8.16112,R,ugm-3,13.08628,R,ugm-3
03-01-2017,24:00,2.61216,R,ugm-3,4.97107,R,ugm-3,8.97632,R,ugm-3
04-01-2017,01:00,3.43881,R,ugm-3,5.04709,R,ugm-3,10.31985,R,ugm-3
04-01-2017,02:00,0.80077,R,ugm-3,2.81329,R,ugm-3,4.04111,R,ugm-3
04-01-2017,03:00,0.70628,R,ugm-3,2.38106,R,ugm-3,3.46402,R,ugm-3
04-01-2017,04:00,0.88309,R,ugm-3,2.70571,R,ugm-3,4.05976,R,ugm-3
04-01-2017,05:00,1.20084,R,ugm-3,5.84460,R,ugm-3,7.68586,R,ugm-3
04-01-2017,06:00,4.52240,R,ugm-3,12.71287,R,ugm-3,19.64711,R,ugm-3
04-01-2017,07:00,8.19632,R,ugm-3,22.66743,R,ugm-3,35.23494,R,ugm-3
04-01-2017,08:00,28.33429,R,ugm-3,46.39964,R,ugm-3,89.84495,R,ugm-3
04-01-2017,09:00,36.14239,R,ugm-3,55.04892,R,ugm-3,110.46648,R,ugm-3
04-01-2017,10:00,23.60016,R,ugm-3,45.37789,R,ugm-3,81.56430,R,ugm-3
04-01-2017,11:00,18.04178,R,ugm-3,36.85196,R,ugm-3,64.51564,R,ugm-3
04-01-2017,12:00,,,,,,,,,
04-01-2017,13:00,23.03514,R,ugm-3,33.09247,R,ugm-3,68.41252,R,ugm-3
04-01-2017,14:00,25.57838,R,ugm-3,34.65928,R,ugm-3,73.87892,R,ugm-3
04-01-2017,15:00,23.14116,R,ugm-3,40.50675,R,ugm-3,75.98936,R,ugm-3
04-01-2017,16:00,29.88874,R,ugm-3,49.10439,R,ugm-3,94.93315,R,ugm-3
04-01-2017,17:00,30.38329,R,ugm-3,53.21723,R,ugm-3,99.80429,R,ugm-3
04-01-2017,18:00,28.44031,R,ugm-3,53.48976,R,ugm-3,97.09763,R,ugm-3
04-01-2017,19:00,17.52394,R,ugm-3,40.89260,R,ugm-3,67.76227,R,ugm-3
04-01-2017,20:00,14.41473,R,ugm-3,44.36139,R,ugm-3,66.46368,R,ugm-3
04-01-2017,21:00,7.52527,R,ugm-3,34.08792,R,ugm-3,45.62651,R,ugm-3
04-01-2017,22:00,9.64475,R,ugm-3,41.17517,R,ugm-3,55.96358,R,ugm-3
04-01-2017,23:00,5.68831,R,ugm-3,25.53809,R,ugm-3,34.26005,R,ugm-3
04-01-2017,24:00,3.49774,R,ugm-3,24.94617,R,ugm-3,30.30930,R,ugm-3
05-01-2017,01:00,4.38093,R,ugm-3,24.31361,R,ugm-3,31.03095,R,ugm-3
05-01-2017,02:00,1.62492,R,ugm-3,24.89501,R,ugm-3,27.38652,R,ugm-3
05-01-2017,03:00,1.20146,R,ugm-3,24.29927,R,ugm-3,26.14148,R,ugm-3
05-01-2017,04:00,2.26136,R,ugm-3,21.15942,R,ugm-3,24.62678,R,ugm-3
05-01-2017,05:00,3.60376,R,ugm-3,27.97748,R,ugm-3,33.50318,R,ugm-3
05-01-2017,06:00,12.96600,R,ugm-3,43.71497,R,ugm-3,63.59588,R,ugm-3
05-01-2017,07:00,31.61999,R,ugm-3,56.94995,R,ugm-3,105.43326,R,ugm-3
05-01-2017,08:00,32.92716,R,ugm-3,72.31928,R,ugm-3,122.80688,R,ugm-3
05-01-2017,09:00,38.72149,R,ugm-3,69.38837,R,ugm-3,128.76050,R,ugm-3
05-01-2017,10:00,61.05003,R,ugm-3,73.63364,R,ugm-3,167.24239,R,ugm-3
05-01-2017,11:00,53.27748,R,ugm-3,71.15456,R,ugm-3,152.84557,R,ugm-3
05-01-2017,12:00,62.35689,R,ugm-3,65.40559,R,ugm-3,161.01816,R,ugm-3
05-01-2017,13:00,75.28765,R,ugm-3,79.35202,R,ugm-3,194.79147,R,ugm-3
05-01-2017,14:00,49.28488,R,ugm-3,61.79670,R,ugm-3,137.36579,R,ugm-3
05-01-2017,15:00,66.98531,R,ugm-3,73.89613,R,ugm-3,176.60551,R,ugm-3
05-01-2017,16:00,67.97442,R,ugm-3,80.76870,R,ugm-3,184.99469,R,ugm-3
05-01-2017,17:00,129.41299,R,ugm-3,97.46387,R,ugm-3,295.89435,R,ugm-3
05-01-2017,18:00,133.08691,R,ugm-3,105.09140,R,ugm-3,309.15515,R,ugm-3
05-01-2017,19:00,111.39512,R,ugm-3,87.79953,R,ugm-3,258.60299,R,ugm-3
05-01-2017,20:00,85.99260,R,ugm-3,81.61020,R,ugm-3,213.46369,R,ugm-3
05-01-2017,21:00,53.80728,R,ugm-3,68.33984,R,ugm-3,150.84318,R,ugm-3
05-01-2017,22:00,53.84282,R,ugm-3,67.20238,R,ugm-3,149.76023,R,ugm-3
05-01-2017,23:00,68.82227,R,ugm-3,69.78043,R,ugm-3,175.30644,R,ugm-3
05-01-2017,24:00,55.18554,R,ugm-3,66.55070,R,ugm-3,151.16735,R,ugm-3
06-01-2017,01:00,40.93555,R,ugm-3,64.35563,R,ugm-3,127.12260,R,ugm-3
06-01-2017,02:00,13.18978,R,ugm-3,57.20479,R,ugm-3,77.42884,R,ugm-3
06-01-2017,03:00,6.95993,R,ugm-3,54.06303,R,ugm-3,64.73478,R,ugm-3
06-01-2017,04:00,6.21841,R,ugm-3,54.27866,R,ugm-3,63.81343,R,ugm-3
06-01-2017,05:00,6.32381,R,ugm-3,51.68005,R,ugm-3,61.37643,R,ugm-3
06-01-2017,06:00,6.46538,R,ugm-3,49.13356,R,ugm-3,59.04700,R,ugm-3
06-01-2017,07:00,18.05373,R,ugm-3,51.51701,R,ugm-3,79.19902,R,ugm-3
06-01-2017,08:00,18.76002,R,ugm-3,47.34585,R,ugm-3,76.11081,R,ugm-3
06-01-2017,09:00,17.38206,R,ugm-3,49.35015,R,ugm-3,76.00227,R,ugm-3
06-01-2017,10:00,23.14085,R,ugm-3,57.58394,R,ugm-3,93.06608,R,ugm-3
06-01-2017,11:00,20.52619,R,ugm-3,53.30568,R,ugm-3,84.77873,R,ugm-3
06-01-2017,12:00,24.62482,R,ugm-3,58.28870,R,ugm-3,96.04623,R,ugm-3
06-01-2017,13:00,26.56780,R,ugm-3,59.80579,R,ugm-3,100.54252,R,ugm-3
06-01-2017,14:00,18.01818,R,ugm-3,55.03840,R,ugm-3,82.66590,R,ugm-3
06-01-2017,15:00,17.31159,R,ugm-3,56.77208,R,ugm-3,83.31615,R,ugm-3
06-01-2017,16:00,15.54510,R,ugm-3,56.82611,R,ugm-3,80.66160,R,ugm-3
06-01-2017,17:00,18.01787,R,ugm-3,52.98008,R,ugm-3,80.60709,R,ugm-3
06-01-2017,18:00,16.85227,R,ugm-3,53.57534,R,ugm-3,79.41513,R,ugm-3
06-01-2017,19:00,29.00565,R,ugm-3,60.40201,R,ugm-3,104.87672,R,ugm-3
06-01-2017,20:00,14.06113,R,ugm-3,44.31263,R,ugm-3,65.87272,R,ugm-3
06-01-2017,21:00,15.43908,R,ugm-3,45.55814,R,ugm-3,69.23107,R,ugm-3
06-01-2017,22:00,14.16715,R,ugm-3,45.93729,R,ugm-3,67.65995,R,ugm-3
06-01-2017,23:00,10.24563,R,ugm-3,35.91579,R,ugm-3,51.62555,R,ugm-3
06-01-2017,24:00,5.26423,R,ugm-3,31.25742,R,ugm-3,39.32913,R,ugm-3
07-01-2017,01:00,10.41038,R,ugm-3,33.65872,R,ugm-3,49.62109,R,ugm-3
07-01-2017,02:00,40.74680,R,ugm-3,48.03244,R,ugm-3,110.50999,R,ugm-3
07-01-2017,03:00,7.70208,R,ugm-3,39.27414,R,ugm-3,51.08383,R,ugm-3
07-01-2017,04:00,11.62359,R,ugm-3,38.78693,R,ugm-3,56.60952,R,ugm-3
07-01-2017,05:00,27.34518,R,ugm-3,39.81682,R,ugm-3,81.74551,R,ugm-3
07-01-2017,06:00,44.37426,R,ugm-3,38.94902,R,ugm-3,106.98860,R,ugm-3
07-01-2017,07:00,14.02589,R,ugm-3,38.57034,R,ugm-3,60.07641,R,ugm-3
07-01-2017,08:00,9.53873,R,ugm-3,32.12378,R,ugm-3,46.74963,R,ugm-3
07-01-2017,09:00,59.91905,R,ugm-3,51.95067,R,ugm-3,143.82526,R,ugm-3
07-01-2017,10:00,86.20465,R,ugm-3,66.08883,R,ugm-3,198.26744,R,ugm-3
07-01-2017,11:00,34.94124,R,ugm-3,59.15506,R,ugm-3,112.73088,R,ugm-3
07-01-2017,12:00,25.89675,R,ugm-3,42.41590,R,ugm-3,82.12371,R,ugm-3
07-01-2017,13:00,23.42367,R,ugm-3,43.71640,R,ugm-3,79.63220,R,ugm-3
07-01-2017,14:00,31.76156,R,ugm-3,45.88327,R,ugm-3,94.58364,R,ugm-3
07-01-2017,15:00,21.44545,R,ugm-3,45.44961,R,ugm-3,78.33218,R,ugm-3
07-01-2017,16:00,58.40015,R,ugm-3,70.09791,R,ugm-3,159.64355,R,ugm-3
07-01-2017,17:00,49.42613,R,ugm-3,70.36900,R,ugm-3,146.15468,R,ugm-3
07-01-2017,18:00,29.46497,R,ugm-3,64.08501,R,ugm-3,109.26399,R,ugm-3
07-01-2017,19:00,20.24368,R,ugm-3,55.95927,R,ugm-3,86.99915,R,ugm-3
07-01-2017,20:00,18.97237,R,ugm-3,54.55072,R,ugm-3,83.64128,R,ugm-3
07-01-2017,21:00,9.99867,R,ugm-3,45.50316,R,ugm-3,60.83423,R,ugm-3
07-01-2017,22:00,18.26515,R,ugm-3,50.54259,R,ugm-3,78.54877,R,ugm-3
07-01-2017,23:00,8.83244,R,ugm-3,33.96600,R,ugm-3,47.50889,R,ugm-3
07-01-2017,24:00,4.23957,R,ugm-3,27.03128,R,ugm-3,33.53186,R,ugm-3
08-01-2017,01:00,2.68502,R,ugm-3,24.77453,R,ugm-3,28.89150,R,ugm-3
08-01-2017,02:00,2.16698,R,ugm-3,21.74066,R,ugm-3,25.06331,R,ugm-3
08-01-2017,03:00,16.00442,R,ugm-3,38.62437,R,ugm-3,63.16414,R,ugm-3
08-01-2017,04:00,11.65883,R,ugm-3,31.90719,R,ugm-3,49.78381,R,ugm-3
08-01-2017,05:00,14.37919,R,ugm-3,37.37838,R,ugm-3,59.42616,R,ugm-3
08-01-2017,06:00,22.99959,R,ugm-3,42.20027,R,ugm-3,77.46581,R,ugm-3
08-01-2017,07:00,35.11804,R,ugm-3,59.31762,R,ugm-3,113.16454,R,ugm-3
08-01-2017,08:00,33.45726,R,ugm-3,53.14216,R,ugm-3,104.44258,R,ugm-3
08-01-2017,09:00,146.86583,R,ugm-3,78.38620,R,ugm-3,303.57734,R,ugm-3
08-01-2017,10:00,133.97031,R,ugm-3,78.06156,R,ugm-3,283.47983,R,ugm-3
08-01-2017,11:00,89.63129,R,ugm-3,71.77804,R,ugm-3,209.21077,R,ugm-3
08-01-2017,12:00,107.57931,R,ugm-3,71.50646,R,ugm-3,236.45911,R,ugm-3
08-01-2017,13:00,80.90487,R,ugm-3,69.01448,R,ugm-3,193.06688,R,ugm-3
08-01-2017,14:00,60.83799,R,ugm-3,64.24757,R,ugm-3,157.53119,R,ugm-3
08-01-2017,15:00,45.61096,R,ugm-3,61.37643,R,ugm-3,131.31225,R,ugm-3
08-01-2017,16:00,27.09790,R,ugm-3,59.37213,R,ugm-3,100.92167,R,ugm-3
08-01-2017,17:00,52.60581,R,ugm-3,69.88179,R,ugm-3,150.54292,R,ugm-3
08-01-2017,18:00,38.86275,R,ugm-3,66.79311,R,ugm-3,126.38183,R,ugm-3
08-01-2017,19:00,22.39901,R,ugm-3,60.88922,R,ugm-3,95.23389,R,ugm-3
08-01-2017,20:00,36.38935,R,ugm-3,60.18494,R,ugm-3,115.98117,R,ugm-3
08-01-2017,21:00,13.00123,R,ugm-3,45.99180,R,ugm-3,65.92674,R,ugm-3
08-01-2017,22:00,6.46538,R,ugm-3,31.20292,R,ugm-3,41.11636,R,ugm-3
08-01-2017,23:00,4.16910,R,ugm-3,26.76018,R,ugm-3,33.15271,R,ugm-3
08-01-2017,24:00,2.82607,R,ugm-3,16.52352,R,ugm-3,20.85677,R,ugm-3
09-01-2017,01:00,0.70639,R,ugm-3,11.71279,R,ugm-3,12.79590,R,ugm-3
09-01-2017,02:00,0.74183,R,ugm-3,8.29643,R,ugm-3,9.43388,R,ugm-3
09-01-2017,03:00,0.67105,R,ugm-3,6.88739,R,ugm-3,7.91632,R,ugm-3
09-01-2017,04:00,0.60026,R,ugm-3,4.55558,R,ugm-3,5.47597,R,ugm-3
09-01-2017,05:00,0.74183,R,ugm-3,9.21825,R,ugm-3,10.35571,R,ugm-3
09-01-2017,06:00,2.75560,R,ugm-3,12.63732,R,ugm-3,16.86251,R,ugm-3
09-01-2017,07:00,5.61753,R,ugm-3,25.59881,R,ugm-3,34.21223,R,ugm-3
09-01-2017,08:00,8.79721,R,ugm-3,21.91629,R,ugm-3,35.40516,R,ugm-3
09-01-2017,09:00,7.27768,R,ugm-3,21.37219,R,ugm-3,32.53115,R,ugm-3
09-01-2017,10:00,11.16427,R,ugm-3,24.79365,R,ugm-3,41.91196,R,ugm-3
09-01-2017,11:00,12.11814,R,ugm-3,29.78241,R,ugm-3,48.36330,R,ugm-3
09-01-2017,12:00,10.81066,R,ugm-3,27.01645,R,ugm-3,43.59257,R,ugm-3
09-01-2017,13:00,16.21615,R,ugm-3,30.87349,R,ugm-3,55.73790,R,ugm-3
09-01-2017,14:00,13.14249,R,ugm-3,29.78480,R,ugm-3,49.93633,R,ugm-3
09-01-2017,15:00,15.89871,R,ugm-3,33.20339,R,ugm-3,57.58107,R,ugm-3
09-01-2017,16:00,22.92880,R,ugm-3,48.01570,R,ugm-3,83.17271,R,ugm-3
09-01-2017,17:00,22.54058,R,ugm-3,50.72476,R,ugm-3,85.28650,R,ugm-3
09-01-2017,18:00,16.71101,R,ugm-3,42.20505,R,ugm-3,67.82825,R,ugm-3
09-01-2017,19:00,12.08228,R,ugm-3,34.55505,R,ugm-3,53.08096,R,ugm-3
09-01-2017,20:00,5.61753,R,ugm-3,24.89453,R,ugm-3,33.50796,R,ugm-3
09-01-2017,21:00,6.57140,R,ugm-3,25.81779,R,ugm-3,35.89380,R,ugm-3
09-01-2017,22:00,6.99548,R,ugm-3,22.40159,R,ugm-3,33.12785,R,ugm-3
09-01-2017,23:00,6.11239,R,ugm-3,21.04515,R,ugm-3,30.41736,R,ugm-3
09-01-2017,24:00,3.35617,R,ugm-3,11.11975,R,ugm-3,16.26581,R,ugm-3
10-01-2017,01:00,2.87336,R,ugm-3,11.57126,R,ugm-3,15.97703,R,ugm-3
10-01-2017,02:00,1.27193,R,ugm-3,5.15228,R,ugm-3,7.10255,R,ugm-3
10-01-2017,03:00,1.09482,R,ugm-3,2.33325,R,ugm-3,4.01195,R,ugm-3
10-01-2017,04:00,0.88309,R,ugm-3,2.49581,R,ugm-3,3.84986,R,ugm-3
10-01-2017,05:00,1.48366,R,ugm-3,5.15323,R,ugm-3,7.42815,R,ugm-3
10-01-2017,06:00,3.88628,R,ugm-3,8.35476,R,ugm-3,14.31363,R,ugm-3
10-01-2017,07:00,6.21810,R,ugm-3,14.91893,R,ugm-3,24.45323,R,ugm-3
10-01-2017,08:00,9.07941,R,ugm-3,15.62799,R,ugm-3,29.54956,R,ugm-3
10-01-2017,09:00,15.36861,R,ugm-3,21.70831,R,ugm-3,45.27318,R,ugm-3
10-01-2017,10:00,12.71872,R,ugm-3,24.90410,R,ugm-3,44.40586,R,ugm-3
10-01-2017,11:00,13.21327,R,ugm-3,21.48885,R,ugm-3,41.74892,R,ugm-3
10-01-2017,12:00,10.06945,R,ugm-3,24.62870,R,ugm-3,40.06831,R,ugm-3
10-01-2017,13:00,8.26742,R,ugm-3,14.70426,R,ugm-3,27.38078,R,ugm-3
10-01-2017,14:00,21.40991,R,ugm-3,28.65690,R,ugm-3,61.48496,R,ugm-3
10-01-2017,15:00,15.08578,R,ugm-3,27.61793,R,ugm-3,50.74914,R,ugm-3
10-01-2017,16:00,17.45285,R,ugm-3,38.84479,R,ugm-3,65.60544,R,ugm-3
10-01-2017,17:00,20.24399,R,ugm-3,50.45127,R,ugm-3,81.49163,R,ugm-3
10-01-2017,18:00,18.51274,R,ugm-3,46.38243,R,ugm-3,74.76823,R,ugm-3
10-01-2017,19:00,14.13160,R,ugm-3,38.40683,R,ugm-3,60.07497,R,ugm-3
10-01-2017,20:00,7.66653,R,ugm-3,25.87278,R,ugm-3,37.62796,R,ugm-3
10-01-2017,21:00,8.90323,R,ugm-3,30.04968,R,ugm-3,43.70110,R,ugm-3
10-01-2017,22:00,5.79371,R,ugm-3,25.43768,R,ugm-3,34.32125,R,ugm-3
10-01-2017,23:00,3.67423,R,ugm-3,14.96962,R,ugm-3,20.60336,R,ugm-3
10-01-2017,24:00,1.87282,R,ugm-3,8.62251,R,ugm-3,11.49413,R,ugm-3
11-01-2017,01:00,3.01472,R,ugm-3,9.34256,R,ugm-3,13.96508,R,ugm-3
11-01-2017,02:00,1.03609,R,ugm-3,9.33683,R,ugm-3,10.92548,R,ugm-3
11-01-2017,03:00,4.34528,R,ugm-3,6.57900,R,ugm-3,13.24167,R,ugm-3
11-01-2017,04:00,1.41288,R,ugm-3,6.67893,R,ugm-3,8.84531,R,ugm-3
11-01-2017,05:00,2.47277,R,ugm-3,2.01482,R,ugm-3,5.80635,R,ugm-3
11-01-2017,06:00,2.08455,R,ugm-3,5.48601,R,ugm-3,8.68227,R,ugm-3
11-01-2017,07:00,2.86193,R,ugm-3,6.41118,R,ugm-3,10.79941,R,ugm-3
11-01-2017,08:00,5.54674,R,ugm-3,12.06214,R,ugm-3,20.56703,R,ugm-3
11-01-2017,09:00,6.64218,R,ugm-3,12.06501,R,ugm-3,22.24955,R,ugm-3
11-01-2017,10:00,6.07653,R,ugm-3,11.79295,R,ugm-3,21.11018,R,ugm-3
11-01-2017,11:00,5.33470,R,ugm-3,10.38009,R,ugm-3,18.55986,R,ugm-3
11-01-2017,12:00,5.51151,R,ugm-3,11.08533,R,ugm-3,19.53619,R,ugm-3
11-01-2017,13:00,8.86799,R,ugm-3,10.98540,R,ugm-3,24.58280,R,ugm-3
11-01-2017,14:00,8.09030,R,ugm-3,8.70474,R,ugm-3,21.10970,R,ugm-3
11-01-2017,15:00,6.28858,R,ugm-3,11.35882,R,ugm-3,21.00116,R,ugm-3
11-01-2017,16:00,7.87857,R,ugm-3,15.16134,R,ugm-3,27.24165,R,ugm-3
11-01-2017,17:00,9.00925,R,ugm-3,14.78458,R,ugm-3,28.59857,R,ugm-3
11-01-2017,18:00,5.86481,R,ugm-3,14.93902,R,ugm-3,23.93159,R,ugm-3
11-01-2017,19:00,6.53585,R,ugm-3,10.00333,R,ugm-3,20.02483,R,ugm-3
11-01-2017,20:00,4.48685,R,ugm-3,8.96628,R,ugm-3,15.84602,R,ugm-3
11-01-2017,21:00,3.32094,R,ugm-3,6.14104,R,ugm-3,11.23307,R,ugm-3
11-01-2017,22:00,2.79083,R,ugm-3,5.97704,R,ugm-3,10.25626,R,ugm-3
11-01-2017,23:00,4.38114,R,ugm-3,6.84866,R,ugm-3,13.56632,R,ugm-3
11-01-2017,24:00,1.44843,R,ugm-3,1.57733,R,ugm-3,3.79823,R,ugm-3
12-01-2017,01:00,3.25046,R,ugm-3,9.12581,R,ugm-3,14.10979,R,ugm-3
12-01-2017,02:00,0.94213,R,ugm-3,1.15961,R,ugm-3,2.60419,R,ugm-3
12-01-2017,03:00,1.02435,R,ugm-3,1.57733,R,ugm-3,3.14798,R,ugm-3
12-01-2017,04:00,1.23639,R,ugm-3,2.33708,R,ugm-3,4.23284,R,ugm-3
12-01-2017,05:00,1.55445,R,ugm-3,2.28353,R,ugm-3,4.66698,R,ugm-3
12-01-2017,06:00,5.51182,R,ugm-3,14.17736,R,ugm-3,22.62870,R,ugm-3
12-01-2017,07:00,9.36286,R,ugm-3,12.23474,R,ugm-3,26.59092,R,ugm-3
12-01-2017,08:00,10.98747,R,ugm-3,30.20268,R,ugm-3,47.04989,R,ugm-3
12-01-2017,09:00,12.68348,R,ugm-3,36.88161,R,ugm-3,56.32934,R,ugm-3
12-01-2017,10:00,11.16396,R,ugm-3,32.59091,R,ugm-3,49.70874,R,ugm-3
12-01-2017,11:00,19.67865,R,ugm-3,43.24975,R,ugm-3,73.42327,R,ugm-3
12-01-2017,12:00,18.65400,R,ugm-3,41.78191,R,ugm-3,70.38430,R,ugm-3
12-01-2017,13:00,17.91216,R,ugm-3,37.76423,R,ugm-3,65.22916,R,ugm-3
12-01-2017,14:00,22.22221,R,ugm-3,49.06375,R,ugm-3,83.13733,R,ugm-3
12-01-2017,15:00,32.46815,R,ugm-3,58.09936,R,ugm-3,107.88317,R,ugm-3
12-01-2017,16:00,34.19910,R,ugm-3,71.50838,R,ugm-3,123.94626,R,ugm-3
12-01-2017,17:00,40.70002,R,ugm-3,73.74983,R,ugm-3,136.15566,R,ugm-3
12-01-2017,18:00,20.80933,R,ugm-3,52.15244,R,ugm-3,84.05963,R,ugm-3
12-01-2017,19:00,11.76516,R,ugm-3,36.66215,R,ugm-3,54.70180,R,ugm-3
12-01-2017,20:00,9.43302,R,ugm-3,33.07382,R,ugm-3,47.53758,R,ugm-3
12-01-2017,21:00,10.98747,R,ugm-3,30.69084,R,ugm-3,47.53806,R,ugm-3
12-01-2017,22:00,6.81868,R,ugm-3,21.61651,R,ugm-3,32.07167,R,ugm-3
12-01-2017,23:00,5.68769,R,ugm-3,20.42024,R,ugm-3,29.14124,R,ugm-3
12-01-2017,24:00,3.21460,R,ugm-3,10.21227,R,ugm-3,15.14126,R,ugm-3
13-01-2017,01:00,1.78988,R,ugm-3,5.86627,R,ugm-3,8.61071,R,ugm-3
13-01-2017,02:00,2.92035,R,ugm-3,5.72411,R,ugm-3,10.20191,R,ugm-3
13-01-2017,03:00,2.64989,R,ugm-3,6.24766,R,ugm-3,10.31077,R,ugm-3
13-01-2017,04:00,1.41288,R,ugm-3,4.78029,R,ugm-3,6.94668,R,ugm-3
13-01-2017,05:00,1.80204,R,ugm-3,5.37652,R,ugm-3,8.13960,R,ugm-3
13-01-2017,06:00,4.76936,R,ugm-3,7.93640,R,ugm-3,15.24932,R,ugm-3
13-01-2017,07:00,4.31036,R,ugm-3,7.12072,R,ugm-3,13.72984,R,ugm-3
13-01-2017,08:00,8.19663,R,ugm-3,11.96078,R,ugm-3,24.52877,R,ugm-3
13-01-2017,09:00,8.62040,R,ugm-3,14.45850,R,ugm-3,27.67627,R,ugm-3
13-01-2017,10:00,9.07941,R,ugm-3,18.85534,R,ugm-3,32.77690,R,ugm-3
13-01-2017,11:00,9.46857,R,ugm-3,16.68513,R,ugm-3,31.20339,R,ugm-3
13-01-2017,12:00,10.28087,R,ugm-3,16.79653,R,ugm-3,32.56031,R,ugm-3
13-01-2017,13:00,9.85679,R,ugm-3,17.71836,R,ugm-3,32.83189,R,ugm-3
13-01-2017,14:00,11.37631,R,ugm-3,23.63707,R,ugm-3,41.08050,R,ugm-3
13-01-2017,15:00,11.34045,R,ugm-3,26.94760,R,ugm-3,44.33605,R,ugm-3
13-01-2017,16:00,11.41155,R,ugm-3,26.73006,R,ugm-3,44.22752,R,ugm-3
13-01-2017,17:00,9.85710,R,ugm-3,22.33083,R,ugm-3,37.44484,R,ugm-3
13-01-2017,18:00,8.72611,R,ugm-3,23.25026,R,ugm-3,36.63011,R,ugm-3
13-01-2017,19:00,8.09030,R,ugm-3,24.98490,R,ugm-3,37.38985,R,ugm-3
13-01-2017,20:00,7.94936,R,ugm-3,28.13096,R,ugm-3,40.31980,R,ugm-3
13-01-2017,21:00,5.86449,R,ugm-3,21.18046,R,ugm-3,30.17256,R,ugm-3
13-01-2017,22:00,5.86481,R,ugm-3,24.54407,R,ugm-3,33.53664,R,ugm-3
13-01-2017,23:00,4.48685,R,ugm-3,13.14509,R,ugm-3,20.02483,R,ugm-3
13-01-2017,24:00,3.25046,R,ugm-3,11.40472,R,ugm-3,16.38869,R,ugm-3
14-01-2017,01:00,2.44762,R,ugm-3,11.16581,R,ugm-3,14.91878,R,ugm-3
14-01-2017,02:00,1.17620,R,ugm-3,6.01800,R,ugm-3,7.82149,R,ugm-3
14-01-2017,03:00,1.02341,R,ugm-3,4.78555,R,ugm-3,6.35476,R,ugm-3
14-01-2017,04:00,1.44718,R,ugm-3,4.29882,R,ugm-3,6.51780,R,ugm-3
14-01-2017,05:00,1.72938,R,ugm-3,5.11546,R,ugm-3,7.76714,R,ugm-3
14-01-2017,06:00,2.22394,R,ugm-3,5.00836,R,ugm-3,8.41835,R,ugm-3
14-01-2017,07:00,2.71787,R,ugm-3,7.94500,R,ugm-3,12.11234,R,ugm-3
14-01-2017,08:00,7.20098,R,ugm-3,14.75876,R,ugm-3,25.80010,R,ugm-3
14-01-2017,09:00,7.02448,R,ugm-3,24.91462,R,ugm-3,35.68534,R,ugm-3
14-01-2017,10:00,11.40157,R,ugm-3,22.27632,R,ugm-3,39.75848,R,ugm-3
14-01-2017,11:00,15.31965,R,ugm-3,28.76113,R,ugm-3,52.25093,R,ugm-3
14-01-2017,12:00,15.35489,R,ugm-3,29.35879,R,ugm-3,52.90262,R,ugm-3
14-01-2017,13:00,13.13095,R,ugm-3,20.00523,R,ugm-3,40.13907,R,ugm-3
14-01-2017,14:00,17.26107,R,ugm-3,20.62440,R,ugm-3,47.09101,R,ugm-3
14-01-2017,15:00,17.33155,R,ugm-3,22.68894,R,ugm-3,49.26361,R,ugm-3
14-01-2017,16:00,9.45984,R,ugm-3,23.29808,R,ugm-3,37.80295,R,ugm-3
14-01-2017,17:00,18.46160,R,ugm-3,36.81610,R,ugm-3,65.12349,R,ugm-3
14-01-2017,18:00,12.21325,R,ugm-3,30.91700,R,ugm-3,49.64372,R,ugm-3
14-01-2017,19:00,8.04789,R,ugm-3,32.68749,R,ugm-3,45.02742,R,ugm-3
14-01-2017,20:00,10.27183,R,ugm-3,34.05637,R,ugm-3,49.80628,R,ugm-3
14-01-2017,21:00,7.27145,R,ugm-3,36.81084,R,ugm-3,47.96024,R,ugm-3
14-01-2017,22:00,8.50690,R,ugm-3,40.61959,R,ugm-3,53.66332,R,ugm-3
14-01-2017,23:00,8.75418,R,ugm-3,32.79890,R,ugm-3,46.22178,R,ugm-3
14-01-2017,24:00,7.16543,R,ugm-3,30.50963,R,ugm-3,41.49647,R,ugm-3
15-01-2017,01:00,6.11842,R,ugm-3,39.35734,R,ugm-3,48.73879,R,ugm-3
15-01-2017,02:00,3.52986,R,ugm-3,32.55362,R,ugm-3,37.96599,R,ugm-3
15-01-2017,03:00,2.89436,R,ugm-3,32.60478,R,ugm-3,37.04273,R,ugm-3
15-01-2017,04:00,2.85912,R,ugm-3,32.98489,R,ugm-3,37.36882,R,ugm-3
15-01-2017,05:00,3.74190,R,ugm-3,21.58304,R,ugm-3,27.32054,R,ugm-3
15-01-2017,06:00,4.58851,R,ugm-3,24.08746,R,ugm-3,31.12307,R,ugm-3
15-01-2017,07:00,2.29441,R,ugm-3,17.77334,R,ugm-3,21.29138,R,ugm-3
15-01-2017,08:00,1.12943,R,ugm-3,20.75493,R,ugm-3,22.48670,R,ugm-3
15-01-2017,09:00,1.87064,R,ugm-3,11.30813,R,ugm-3,14.17641,R,ugm-3
15-01-2017,10:00,3.70604,R,ugm-3,8.49341,R,ugm-3,14.17593,R,ugm-3
15-01-2017,11:00,5.29479,R,ugm-3,14.15059,R,ugm-3,22.26915,R,ugm-3
15-01-2017,12:00,3.98855,R,ugm-3,9.52712,R,ugm-3,15.64282,R,ugm-3
15-01-2017,13:00,5.40081,R,ugm-3,10.56608,R,ugm-3,18.84721,R,ugm-3
15-01-2017,14:00,6.10647,R,ugm-3,14.53548,R,ugm-3,23.89860,R,ugm-3
15-01-2017,15:00,8.75418,R,ugm-3,22.80513,R,ugm-3,36.22801,R,ugm-3
15-01-2017,16:00,15.63771,R,ugm-3,37.72406,R,ugm-3,61.70155,R,ugm-3